#timestamp,LO_Frequency,Hit,StdDev 
1693857615.2,286046999.8,N
1693857635.1,286047001.2,N
1693857636.0,286047001.2,N
1693857655.8,286046998.8,N
1693857675.6,286047000.6,N
1693857695.5,286046998.3,N
1693857715.3,286046999.3,N
1693857735.2,286046998.7,N
1693857755.9,286046999.2,N
1693857775.7,286046996.6,N
1693857795.6,286046998.6,N
1693857815.4,286047000.8,N
1693857835.3,286046999.6,N
1693857855.1,286046997.3,N
1693857856.0,286046997.3,N
1693857875.8,286046997.0,N
1693857895.7,286046996.9,N
1693857915.5,286046997.8,N
1693857935.3,286046995.3,N
1693857955.2,286046996.1,N
1693857975.0,286046995.5,N
1693857975.9,286046995.5,N
1693857995.8,286046996.1,N
1693858015.6,286046995.8,N
1693858035.4,286046995.5,N
1693858055.3,286046995.8,N
1693858075.1,286046996.2,N
1693858095.9,286046993.5,Y
1693858115.7,286046997.5,P
1693858135.6,286046997.3,P
1693858155.4,286046998.0,P
1693858175.2,286046995.0,Y
1693858195.1,286046998.8,P
1693858196.0,286046998.8,N
1693858215.8,286046999.3,N
1693858235.7,286046999.3,N
1693858255.5,286046998.4,N
1693858275.3,286046998.4,N
1693858295.2,286046996.8,Y
1693858315.0,286046998.4,P
1693858315.9,286046998.4,P
1693858335.8,286046999.0,P
1693858355.6,286046998.7,Y
1693858375.4,286047002.7,P
1693858395.3,286047002.6,N
1693858415.1,286047002.2,N
1693858435.8,286047002.2,N
1693858455.7,286047002.5,N
1693858475.5,286047002.4,N
1693858495.4,286046999.7,N
1693858515.2,286047000.1,N
1693858535.0,286047002.6,N
1693858535.9,286047002.6,N
1693858555.8,286047002.5,N
1693858575.6,286047002.3,N
1693858595.4,286047002.2,N
1693858615.3,286047001.1,N
1693858635.1,286046998.1,N
1693858655.9,286046998.6,N
1693858675.7,286046998.7,N
1693858695.5,286047000.5,N
1693858715.4,286047000.3,N
1693858735.2,286047001.0,N
1693858755.1,286047000.9,N
1693858756.0,286047000.9,N
1693858775.8,286047001.2,N
1693858795.6,286046999.9,N
1693858815.5,286046998.5,N
1693858835.3,286046998.5,N
1693858855.1,286046998.6,N
1693858875.9,286047000.3,N
1693858895.7,286047000.6,N
1693858915.6,286047001.0,N
1693858935.4,286047001.0,N
1693858955.2,286047000.6,N
1693858975.1,286046998.2,N
1693858976.0,286046998.2,N
1693858995.8,286046998.6,N
1693859015.7,286046999.0,N
1693859035.5,286046998.9,N
1693859055.3,286046999.4,N
1693859075.2,286046999.1,N
1693859095.0,286046998.3,N
1693859095.9,286046998.3,N
1693859115.8,286046998.7,N
1693859135.6,286046999.3,N
1693859155.4,286046998.7,N
1693859175.3,286046999.1,N
1693859195.1,286046998.4,N
1693859215.8,286046996.7,Y
1693859235.7,286046999.3,P
1693859255.5,286046998.7,P
1693859275.4,286046999.4,N
1693859295.2,286046998.8,Y
1693859315.0,286047001.1,P
1693859315.9,286047001.1,N
1693859335.8,286046998.7,N
1693859355.6,286046996.6,Y
1693859375.5,286046997.1,P
1693859395.3,286046999.6,N
1693859415.1,286046997.1,N
1693859435.9,286046998.8,N
1693859455.7,286046999.6,N
1693859475.5,286046998.5,N
1693859495.4,286046999.0,N
1693859515.2,286046996.6,Y
1693859535.1,286046999.6,P
1693859536.0,286046999.6,N
1693859555.8,286046999.0,N
1693859575.6,286046998.7,Y
1693859595.5,286047000.6,P
1693859615.3,286046999.2,N
1693859635.2,286046998.4,N
1693859655.9,286046998.5,N
1693859675.7,286047000.6,N
1693859695.6,286046999.7,N
1693859715.4,286047000.0,N
1693859735.2,286047002.6,Y
1693859755.1,286046999.8,P
1693859756.0,286046999.8,N
1693859775.8,286047000.5,P
1693859795.7,286047000.2,N
1693859815.5,286047000.2,N
1693859835.3,286047000.2,N
1693859855.2,286047000.4,N
1693859875.0,286047000.3,N
1693859875.9,286047000.3,N
1693859895.7,286046999.8,N
1693859915.6,286047001.3,Y
1693859935.4,286047001.9,P
1693859955.3,286047002.8,P
1693859975.1,286047002.1,N
1693859976.0,286047002.1,N
1693859995.8,286047001.4,N
1693860015.7,286047004.4,Y
1693860035.5,286047001.0,P
1693860055.3,286047000.5,N
1693860075.2,286046998.9,N
1693860095.0,286046998.9,N
1693860095.9,286046998.9,N
1693860115.8,286046998.4,N
1693860135.6,286046999.3,N
1693860155.4,286047001.2,N
1693860175.3,286046998.2,N
1693860195.1,286046998.8,N
1693860215.8,286046996.5,N
1693860235.7,286046999.5,N
1693860255.5,286046998.9,N
1693860275.4,286046999.2,N
1693860295.2,286046999.3,N
1693860315.0,286046998.6,N
1693860315.9,286046998.6,N
1693860335.8,286046998.9,N
1693860355.6,286047001.2,N
1693860375.4,286047001.1,N
1693860395.3,286047001.0,N
1693860415.1,286046998.3,N
1693860435.9,286046998.8,N
1693860455.7,286046998.4,N
1693860475.5,286046999.4,N
1693860495.4,286046998.8,N
1693860515.2,286046999.4,N
1693860535.0,286046999.1,N
1693860535.9,286046999.1,N
1693860555.8,286046996.6,Y
1693860575.6,286046999.4,P
1693860595.5,286046999.2,P
1693860615.3,286046999.4,P
1693860635.1,286046998.9,Y
1693860655.9,286047001.1,P
1693860675.7,286046998.1,N
1693860695.5,286047000.4,N
1693860715.4,286047000.7,N
1693860765.3,286047000.7,E
1693860775.2,286046998.6,N
1693860795.0,286046999.6,P
1693860795.9,286046999.6,N
1693860815.8,286046999.5,N
1693860835.6,286046998.7,Y
1693860855.4,286046998.8,P
1693860875.3,286046998.8,P
1693860895.1,286047000.7,N
1693860915.9,286047001.1,N
1693860935.7,286047001.2,N
1693860955.5,286046998.4,N
1693860975.4,286047001.1,N
1693860995.2,286047000.9,N
1693861015.0,286047000.4,N
1693861016.0,286047000.4,N
1693861035.8,286047000.9,N
1693861055.6,286047000.4,N
1693861075.5,286047002.7,N
1693861095.3,286047002.4,N
1693861115.1,286047002.6,N
1693861135.9,286047002.0,N
1693861155.7,286047002.4,N
1693861175.6,286047001.9,N
1693861195.4,286047001.9,N
